www.pogodaiklimat.ru

Погода и климат >> Архив погоды >> Россия >> Якутия >> Томпо


ПОГОДА в Томпо

  • Прогноз погоды в Томпо
  • Монитор погоды в Томпо
  • Климат города

АРХИВ ПОГОДЫ в Томпо

Время (UTC), дата Ветер
(напр.,м/с)
 
Видим.   Явления Облачность Т
(С)
Тd
(С)
f
(%)
Тe
(С)
Тes
(С)
Комфортность P
(гПа)
Po
(гПа)
Тmin
(С)
Tmax
(С)
R
(мм)
R24
(мм)
S
(см)
03 9.07 штиль 0 10 км дым ясно +30.8 +6.8 22 +29 +46 жарко 1009.5 965.2 +37.4
09 9.07 штиль 0 10 км дым ясно +35.4 +7.5 18 +33 +37 жарко 1005.2 961.5 +35.6
12 9.07 штиль 0 10 км дым ясно +27.0 +12.0 39 +28 +28 жарко 1011.2 964.5
15 9.07 штиль 0 10 км дым ясно +13.6 +9.7 77 +13 +13 1011.8 964.9
18 9.07 штиль 0 10 км дым ясно +12.4 +10.1 86 +12 +12 1012.4 965.7
21 9.07 штиль 0 10 км дым ясно +14.2 +11.0 81 +14 +17 1012.6 965.7 +11.7
00 10.07 штиль 0 10 км дым ясно +20.2 +13.4 65 +22 +34 комфорт 1010.7 964.9
03 10.07 штиль 0 10 км дым ясно +28.0 +14.6 44 +30 +47 жарко 1008.0 963.4
06 10.07 штиль 0 10 км дым ясно +30.6 +13.7 36 +32 +44 жарко 1005.5 961.3
09 10.07 штиль 0 10 км дым ясно +31.8 +13.7 33 +33 +36 жарко 1002.6 958.9 +32.4
12 10.07 штиль 0 10 км дым 3/1 1000 м
[Sc Ci fib]
+24.8 +17.6 64 +29 +29 душно 1003.3 958.6
15 10.07 С 1 10 км дым 3/3 1000 м
[Sc]
+18.2 +13.6 75 +20 +20 1004.7 958.9
18 10.07 С 1 10 км дым 3/3 1000 м
[Sc]
+17.1 +13.9 81 +18 +18 1005.3 959.2
21 10.07 штиль 0 10 км дым ясно +14.3 +11.5 83 +14 +17 1005.4 958.9 +12.1
00 11.07 ЮВ 2 10 км дым ясно +20.5 +13.6 65 +24 +32 комфорт 1003.4 957.9
03 11.07 Ю 1 10 км дым 8/8 1000 м
[Sc]
+24.7 +15.5 57 +28 +31 душно 1001.0 956.4
06 11.07 Ю 1 10 км дым 4/1 600 м
[Cu hum Ci fib]
+30.2 +12.7 34 +31 +31 жарко 998.6 954.8
09 11.07 ЮВ 1 10 км дым 3/0
[Ci fib]
+29.8 +8.5 26 +29 +32 жарко 997.9 953.9 +30.9
12 11.07 штиль 0 10 км дым 3/0
[Ci fib]
+25.4 +9.4 36 +26 +26 жарко 999.1 954.5
15 11.07 штиль 0 10 км дым ясно +14.6 +10.0 74 +14 +14 1001.0 954.7
18 11.07 штиль 0 10 км дым ясно +13.1 +10.2 83 +13 +13 1001.5 955.0
21 11.07 штиль 0 10 км дым ясно +11.7 +9.7 88 +11 +14 1002.3 955.4 +9.2
00 12.07 Ю 4
{11}
10 км дым ясно +22.6 +10.9 48 +25 +31 комфорт 999.8 954.8
03 12.07 Ю 3
{12}
10 км дым 8/5 600 м
[Cu Sc Ci fib]
+22.5 +12.5 53 +25 +30 комфорт 999.9 954.9
06 12.07 Ю 4
{13}
10 км дым 3/1 600 м
[Cu hum Ci fib]
+24.1 +11.6 45 +26 +30 жарко 997.5 952.9
09 12.07 Ю 3
{13}
10 км дым 8/4 600 м
[Cb cap Ac trans Ci fib]
+24.7 +10.6 41 +26 +27 жарко 996.9 952.3 +25.9
12 12.07 СЗ 2
{12}
10 км дым 9/9 600 м
[Cb cap]
+19.8 +13.1 65 +22 +22 комфорт 998.4 953.1
15 12.07 штиль 0 10 км дым {ливн. осадки} 8/5 1000 м
[Sc Ac trans]
+14.0 +12.5 91 +14 +14 999.3 953.0
18 12.07 штиль 0 10 км дым {ливн. осадки} 9/9 1000 м
[Sc]
+13.2 +12.3 94 +13 +13 999.9 953.5
21 12.07 СЗ 1 10 км дым 8/6 1000 м
[Sc Ac trans]
+13.4 +12.7 96 +13 +14 1000.6 954.2 +11.6
00 13.07 С 2 10 км дым 10/10 1000 м
[Sc]
+16.7 +14.4 86 +17 +17 1000.1 954.3
03 13.07 С 1 10 км дым 10/10 600 м
[Cb cap]
+17.9 +14.6 81 +19 +19 999.7 954.1
06 13.07 СВ 2 10 км дым 9/9 1000 м
[Sc]
+20.7 +15.1 70 +24 +25 комфорт 998.9 953.7
09 13.07 Ю 1 50 км в посл. час ливневой дождь 10/10 600 м
[Cb cap]
+18.1 +16.9 93 +19 +19 999.8 954.2 +21.3 3
12 13.07 Ю 2 50 км {ливн. осадки} 6/3 1000 м
[Sc Ci fib]
+18.2 +16.2 88 +19 +19 1000.4 954.8
15 13.07 штиль 0 50 км 8/3 1000 м
[Sc Ci fib]
+15.1 +13.3 89 +15 +15 1001.6 955.4
18 13.07 штиль 0 50 км 6/3 1000 м
[Sc Ci fib]
+13.6 +12.3 92 +13 +13 1002.6 956.1
21 13.07 штиль 0 50 км 10/10 1000 м
[Sc]
+14.0 +11.8 87 +14 +14 1003.1 964.7 +12.9
00 14.07 штиль 0 50 км 10/10 1000 м
[Sc]
+17.2 +14.8 86 +17 +17 1003.1 957.1
03 14.07 Ю 1 50 км 10/10 1000 м
[Sc]
+19.3 +16.1 82 +22 +22 комфорт 1002.9 957.2
06 14.07 Ю 1 50 км 10/10 600 м
[Cb cap]
+20.1 +17.2 83 +24 +24 комфорт 1002.2 956.8
09 14.07 ЮВ 1 50 км в посл. час ливневой дождь 10/10 600 м
[Cb cap]
+19.1 +16.8 87 +22 +22 комфорт 1003.0 957.3 +21.1 0.5
12 14.07 СЗ 1 50 км {ливн. осадки} 10/10 600 м
[Cb cap]
+18.7 +16.7 88 +21 +21 комфорт 1003.7 958.0
15 14.07 штиль 0 50 км 10/10 1000 м
[Sc]
+15.8 +14.0 89 +16 +16 1005.0 958.9
18 14.07 штиль 0 50 км 10/10 600 м
[Cb cap]
+13.5 +12.2 92 +13 +13 1006.6 959.9
21 14.07 штиль 0 50 км 9/8 600 м
[Cb cap Ci fib]
+14.4 +13.5 94 +14 +15 1006.4 959.8 +13.0
00 15.07 штиль 0 10 км слабый ливневой дождь 10/10 600 м
[Cb cap]
+15.7 +14.7 94 +15 +15 1006.3 960.1
03 15.07 штиль 0 10 км слабый дождь {ливн. осадки} 10/10 300 м
[Frnb]
+16.2 +15.3 94 +16 +16 1006.6 960.4
06 15.07 штиль 0 4000 м дождь {ливн. осадки} 10/10 300 м
[Frnb Ns]
+16.0 +15.3 96 +16 +16 1006.7 960.5
09 15.07 штиль 0 4000 м слабый дождь 10/10 300 м
[Frnb Ns]
+16.2 +15.5 96 +16 +16 1006.7 960.5 +16.8 11
12 15.07 штиль 0 50 км {дождь} 10/10 300 м
[Frnb]
+16.1 +14.9 93 +16 +16 1006.6 960.4
15 15.07 штиль 0 2000 м ливневой дождь 10/10 200 м
[Cb cap]
+15.6 +15.4 99 +15 +15 1006.5 960.3
18 15.07 штиль 0 4000 м в посл. час ливневой дождь 10/10 300 м
[Cb cap]
+15.6 +15.3 98 +15 +15 1006.7 960.3
21 15.07 штиль 0 2000 м слабый дождь 10/10 200 м
[Frnb Ns]
+15.2 +15.0 99 +15 +15 1007.1 960.7 +14.8 14
00 16.07 ЮВ 1 4000 м слабый дождь 10/10 300 м
[Frnb Ns]
+16.1 +15.6 97 +17 +17 1007.1 960.9

 

Местоположение метеостанции Томпо (Якутия, Россия): широта 63.95 долгота 135.80 высота над уровнем моря 402 м.

В архиве по умолчанию представлена погода в Томпо за последнюю неделю. Архивные данные за месяц целиком и за предыдущие месяцы, начиная с января 2011 года, Вы можете получить, выбрав интересующий диапазон дат из раскрывающегося списка и нажав кнопку "Ввод!".


*Определитесь, кто Вы:
робот инопланетянин человек

Внимание! Время в таблицах - всемирное. Для получения местного времени необходимо прибавить поправку, которая в Томпо равна 9 ч.

Смотрите также архив погоды в соседних городах и на ближайших метеорологических станциях:

Погода в Теплом Ключе (Якутия, Россия) (139 км)
Погода в Крест-Хальджае (Якутия, Россия) (144 км)
Погода в Иэме (Якутия, Россия) (150 км)
Погода в Верхоянском Перевозе (Якутия, Россия) (200 км)
Погода в Восточной (Якутия, Россия) (204 км)
Погода в Ытык-Кюёле (Якутия, Россия) (210 км)
Погода в Охотском Перевозе (Якутия, Россия) (232 км)
Погода в Чурапче (Якутия, Россия) (268 км)
Погода в Сеген-Кюели (Якутия, Россия) (268 км)
Погода в Юртах (Якутия, Россия) (293 км)

Пояснения к столбцам:

Ветер - указаны скорость ветра в м/с - средняя за 10 мин, порывы в срок и между сроками (в фигурных скобках) и направление, откуда дует ветер: С - северный, СВ - северо-восточный, В - восточный, ЮВ - юго-восточный, Ю - южный, ЮЗ - юго-западный, З - западный, СЗ - северо-западный.
Видимость - горизонтальная дальность видимости в метрах или километрах. При видимости от 1 до 10 км при отсутствии осадков обычно наблюдается дымка, при ухудшении видимости до 1 км и менее - туман. В сухую погоду видимость может ухудшаться дымом, пылью или мглою.
Явления - указаны атмосферные явления, наблюдавшиеся в срок или в последний час перед сроком; фигурными скобками обозначены явления, наблюдавшиеся между сроками (за 1-3 часа до срока); квадратными скобками обозначены град или гололедные отложения с указанием их диаметра в мм.
Облачность - указаны через наклонную черту общая и нижняя облачность в баллах и высота нижней границы облаков в метрах; квадратными скобками обозначены формы облаков: Ci - перистые, Cs - перисто-слоистые, Cc - перисто-кучевые, Ac - высококучевые, As - высокослоистые, Sc - слоисто-кучевые, Ns - слоисто-дождевые, Cu - кучевые, Cb - кучево-дождевые. Подробнее классификацию облаков см. в Атласе облаков (PDF).
T - Температура воздуха - температура, измеренная на высоте 2 м над землей.
Td - Температура точки росы - температура, при понижении до которой содержащийся в воздухе водяной пар достигнет насыщения.
f - Относительная влажность воздуха - влажноcть воздуха, измеренная на высоте 2 м над землей.
Te - Эффективная температура - температура, которую ощущает одетый по сезону человек в тени. Характеристика душности погоды. При расчете учитывается влияние влажности воздуха и скорости ветра на теплоощущения человека.
Tes - Эффективная температура на солнце - температура, которую ощущает человек, с поправкой на солнечный нагрев. Характеристика знойности погоды. Зависит от высоты солнца над горизонтом, облачности и скорости ветра. Ночью, в пасмурную погоду, а также при ветре 12 м/с и более поправка равна нулю.
P - Атмосферное давление - приведенное к уровню моря атмосферное давление.
Po - Атмосферное давление - измеренное на уровне метеостанции атмосферное давление.
Tmin - Минимальная температура - минимум температуры воздуха на высоте 2 м над землей.
Tmax - Максимальная температура - максимум температуры воздуха на высоте 2 м над землей.
R - Количество осадков - Количество выпавших осадков за период времени, мм. При наведении курсора мыши на число - период времени, за который выпало указанное количество осадков.
R24 - Количество осадков - Количество выпавших осадков за 24 часа, мм.
S - Снежный покров - Высота снежного покрова, см. При наведении курсора мыши на число - состояние снежного покрова и степень покрытия местности в баллах.